SL-8 DEB, 1335

Orbit data source: Space-Track

SL-8 DEB, 1335 is space debris in LEO originally from a launch on Mon, 15 Mar 1965 UTC launched from the Tyuratam Missile And Space Complex (TTMTR). Debris objects in space refer to the collection of defunct objects orbiting the Earth. Examples of debris include non-operational satellites, rocket bodies, and fragments generated from explosions, collisions, or faulty payload assembly.

Loading next visibility...
Identifier
1335, 1965-020E
Orbit
LEO
Last TLE update
1 day ago
Origin
Manufacturer
Unknown
Mission
Spacecraft
Bus & Motor
Unknown
Mass
Unknown
Launch date (UTC)
1965-03-15 (60 years ago)
Launch vehicle
Unknown
Launch site
Tyuratam Missile And Space Complex (TTMTR)
Object type
Payload
Rocket body
Debris
Shape & HBR
Unknown
Radar Cross Section
Medium (>0.1 m² and <1 m²)

Expand to show TLE details & history

TLE from 1 day ago
0 SL-8 DEB
1 01335U 65020E   25128.74786164  .00003803  00000-0  11171-2 0  9993
2 01335  56.0741 281.0401 0531911 168.5833 192.7781 13.85845327953881
Epoch: 2025-05-08T17:56Z
Definitive object data (Epoch: 2025-05-08T17:56:55.245Z)
Latitude
-0.00007°
Longitude
144.99596°
Altitude
1,325.098 km
Speed
7.006 km/s
True Right ascension
18h 44m 09s
True Declination
0° 00' 00"
Sunlit
Object was in daylight at TLE epoch
Visualization TLE readout
Latitude
43.20601°
Longitude
-179.83574°
Altitude
1,095.314 km
Speed
7.236 km/s
Apparent Right ascension
18h 52m 44s
Apparent Declination
6° 53' 26"
Sunlit
Object is in daylight
Visualization observer readout
Local Sidereal Time
04:23:18
Azimuth
314.805° NW
Elevation
-31.887°
Doppler factor
1
Orbital elements
Apogee altitude
1,332.455 km
Perigee altitude
553.613 km
Semi-major axis
7,321.171 km
Eccentricity
0.0531911
Inclination
56.0741°
RAAN
281.0401°
Arg. of periapsis
168.5833°
True anomaly
191.51235°
Mean anomaly
192.7781°
Eccentric anomaly
192.13732°
Mean motion
3.46475 °/min
BSTAR
0.0011171
Orbital period
103.9 mins
Loading maneuver chart data...
Loading SW <> Apogee altitude chart data...
Loading historical data...
Loading historical data...
Loading historical data...
Loading historical data...
Loading historical data...
Loading historical data...
Loading historical data...

SL-8 DEB Visibility forecast

Observer location: undefined°, undefined°

Span
Click to sort rows by Start time (UTC) header in descending order
Start Az.
Max El. time (UTC)
Max El. Az.
Max El.
End time (UTC)
End Az.
7 mins2025-05-09 20:30:12.581Z302.914° NW2025-05-09 20:34:12.581Z229.482° WSW36.254°2025-05-09 20:37:12.581Z163.195° S
12 mins2025-05-10 11:38:12.581Z201.073° SSW2025-05-10 11:44:12.581Z123.814° SE40.141°2025-05-10 11:50:12.581Z53.876° ENE
11 mins2025-05-10 13:27:12.581Z261.14° W2025-05-10 13:32:12.581Z317.727° NNW34.041°2025-05-10 13:38:12.581Z34.464° NE
6 mins2025-05-10 15:19:12.581Z314.808° NW2025-05-10 15:22:12.581Z346.966° N17.642°2025-05-10 15:25:12.581Z21.591° NNE
5 mins2025-05-10 17:10:12.581Z344.718° N2025-05-10 17:12:12.581Z9.346° NNE16.554°2025-05-10 17:15:12.581Z48.049° ENE
7 mins2025-05-10 18:58:12.581Z329.582° NNW2025-05-10 19:02:12.581Z54.365° ENE34.517°2025-05-10 19:05:12.581Z105.967° ESE
|